Theta_e
307 307 307 307 307 307 307 307 307 308 308 308 308 308 308 309 309 309 309 309 309 309 309 309 309 308 307 306 307 305 304 309 312 315 316 312 309 307 306 306 306 306 305 308 314 317 316 313 312 312 311 312 311 312 313 315 316 317 319 319 317 318 320 321 323 323 322 324 324 324 325 323 324 324 325 324 325 326 325 330 335 335 335 336 337 341 347 347
306 307 307 307 307 307 307 307 307 307 307 307 308 308 308 308 307 307 307 307 307 308 309 309 309 307 306 306 306 304 306 311 314 316 313 308 307 305 305 305 306 305 306 311 317 316 311 310 312 312 311 311 311 312 312 313 315 316 317 317 317 319 320 321 322 324 324 325 324 326 324 324 324 324 325 324 324 325 325 329 334 335 336 336 336 343 349 349
306 306 306 307 307 307 307 307 307 307 307 307 307 308 308 307 305 305 304 305 305 305 307 309 308 307 305 306 306 304 308 314 315 316 311 306 306 306 305 306 306 306 307 312 315 315 311 310 311 311 311 311 311 312 311 313 313 315 316 316 317 319 320 321 321 322 324 324 325 325 326 326 326 325 326 325 325 324 325 330 335 337 337 336 336 345 350 349
306 306 306 306 307 307 306 306 307 307 307 307 307 308 307 306 305 304 304 304 304 304 305 307 307 307 305 305 305 304 310 316 315 314 310 307 306 307 306 306 306 306 308 312 312 312 311 310 311 310 309 310 311 311 312 313 313 314 315 315 317 317 319 319 320 321 322 322 323 323 325 325 325 326 325 324 325 325 324 327 334 337 339 340 343 350 351 351
306 306 306 306 307 306 306 306 306 307 307 307 307 307 307 306 305 304 304 304 304 304 304 305 306 306 305 305 304 306 313 317 314 312 310 308 307 307 307 306 306 307 308 311 311 312 311 311 310 309 309 309 309 310 311 312 313 313 314 314 315 316 318 318 319 320 321 321 322 322 323 323 324 325 324 324 324 324 324 324 330 337 341 346 349 352 353 354
305 305 306 306 306 306 306 306 306 306 306 307 307 307 307 306 305 304 304 304 304 304 305 305 305 305 305 304 305 309 316 315 313 311 309 308 308 308 308 307 308 309 309 311 312 312 311 311 310 309 309 308 309 309 309 312 312 312 313 314 315 315 316 317 318 319 320 320 321 321 322 322 323 322 323 324 325 324 326 325 327 335 342 348 349 350 351 352
305 305 306 306 306 306 306 306 306 306 306 307 307 307 306 305 304 305 305 304 304 304 305 305 305 305 304 306 308 313 315 313 311 310 309 308 308 309 309 308 309 310 311 311 311 311 310 310 310 310 310 309 310 309 309 311 311 312 312 313 314 314 315 316 317 317 319 319 320 321 320 321 322 322 323 322 324 325 325 325 324 331 340 346 349 348 349 350
305 305 306 306 306 306 306 306 306 306 306 306 306 306 306 305 305 305 305 304 304 305 305 305 305 305 305 308 313 317 314 311 310 309 309 309 309 310 310 310 311 311 310 310 310 310 310 309 310 310 309 310 310 310 310 310 310 311 311 313 313 314 314 315 316 316 316 318 318 319 320 320 320 321 322 322 324 323 325 324 325 329 338 343 346 347 348 350
305 305 306 306 305 306 305 306 306 306 306 306 306 305 305 305 305 305 305 304 304 305 305 305 305 305 306 310 316 318 312 309 310 310 310 310 309 310 309 311 312 311 310 310 310 310 309 309 309 309 309 309 310 310 310 310 310 311 311 312 313 313 314 314 315 315 316 316 317 318 317 318 320 321 322 323 323 323 325 323 325 330 335 340 344 347 349 350
305 305 306 305 305 306 305 305 306 306 306 306 305 305 305 305 305 305 304 304 305 305 305 305 305 306 309 314 318 316 310 309 311 310 310 309 309 310 310 311 311 310 310 310 311 310 310 309 310 309 308 309 309 309 309 309 309 310 311 311 312 313 313 314 315 314 315 317 316 316 317 318 320 320 321 323 325 322 324 323 325 329 331 337 342 347 347 347
305 305 305 305 305 305 305 305 306 306 306 305 305 305 305 305 305 305 304 304 305 305 305 306 305 307 312 315 317 313 308 310 310 309 310 310 310 310 310 311 311 310 311 311 310 311 310 310 310 309 308 308 308 308 308 309 309 309 310 310 311 311 311 312 313 313 314 315 316 316 316 317 318 318 320 323 325 325 323 323 324 325 328 338 343 345 346 346
305 305 305 305 305 305 305 305 305 306 305 305 305 305 306 306 305 305 304 304 305 305 305 305 305 309 314 317 315 309 307 310 309 309 310 310 310 310 309 310 309 310 310 311 311 311 310 310 309 309 308 308 308 308 308 309 309 309 309 309 309 309 309 311 311 311 313 313 315 316 315 316 316 318 319 320 324 327 327 323 324 322 326 336 342 345 345 346
305 305 305 305 305 305 305 305 305 305 305 306 306 306 306 306 305 304 304 305 305 305 306 306 306 310 316 317 311 308 308 309 309 310 310 309 310 310 310 309 309 309 310 310 311 311 311 310 309 308 308 308 308 308 308 309 309 308 309 308 308 308 308 310 310 311 312 313 314 315 313 314 317 318 319 322 323 325 326 323 324 324 322 332 342 343 344 349
305 305 305 305 305 305 305 305 305 305 306 306 306 307 307 305 304 305 305 305 306 305 307 308 309 312 318 316 309 309 310 309 311 311 310 309 309 310 310 310 310 310 309 309 309 310 310 310 310 308 309 308 308 308 308 308 308 308 307 308 307 306 307 310 310 310 311 312 313 314 312 314 317 317 318 323 324 323 322 323 323 326 323 332 342 340 344 353
305 305 305 305 305 305 305 305 306 306 306 306 308 309 307 306 305 305 305 306 307 306 307 311 312 315 320 315 309 310 310 311 312 310 309 310 309 310 311 310 310 309 309 309 308 309 309 310 309 308 308 309 308 308 308 307 308 307 307 307 306 306 307 309 310 310 310 311 312 313 311 314 316 318 318 319 322 323 323 324 325 326 326 334 342 341 346 352
305 305 305 305 305 305 305 305 306 307 307 308 310 310 308 308 305 305 305 306 309 309 309 313 316 317 318 313 310 311 311 312 312 311 311 310 309 309 309 309 309 310 310 309 308 309 309 309 308 308 308 308 308 307 307 308 307 307 307 306 306 306 306 308 309 310 310 310 311 311 311 313 315 316 318 318 320 322 323 324 325 327 327 332 339 344 346 348
305 305 305 304 305 305 305 306 306 307 309 310 311 312 311 311 307 305 305 307 310 312 312 315 316 316 315 311 310 311 312 313 312 312 311 310 309 309 309 309 309 310 310 309 309 308 309 309 308 308 308 307 308 308 307 307 307 307 308 306 307 306 306 306 308 310 311 309 310 311 311 312 314 315 317 318 320 320 321 324 324 325 326 327 335 341 343 344
304 304 304 304 304 305 305 306 307 309 311 311 312 313 314 314 311 308 308 311 313 314 316 316 316 316 314 311 312 312 312 313 312 312 311 310 309 308 309 309 309 309 309 309 309 308 308 308 308 308 308 308 309 308 308 308 308 307 307 307 307 307 307 307 308 309 310 310 310 310 310 311 313 313 315 317 320 319 318 321 322 322 323 324 328 334 338 339
304 304 304 303 304 305 306 306 307 309 312 312 313 314 316 316 313 312 312 315 317 316 316 315 314 314 313 312 312 312 312 312 313 312 310 310 309 309 310 309 309 309 309 309 309 309 309 308 309 309 308 309 308 308 308 309 308 308 307 307 307 307 307 308 309 310 310 309 309 310 310 311 312 313 315 316 318 319 317 320 321 321 321 322 323 327 332 335
304 304 303 303 305 306 306 307 308 310 312 313 314 316 316 315 315 316 314 314 316 314 312 311 311 311 312 312 312 312 312 312 313 312 311 310 309 309 309 310 310 310 309 309 309 309 308 308 309 308 309 309 308 309 308 308 308 308 307 307 306 306 307 309 309 310 311 309 309 310 311 311 312 313 314 315 316 317 316 319 320 319 320 321 323 324 327 332
303 303 303 303 305 306 306 308 310 311 312 314 315 315 313 312 313 314 312 312 313 311 310 311 311 311 312 312 312 312 311 312 313 312 312 310 309 309 309 310 309 309 310 310 310 309 309 308 308 308 309 309 309 308 308 307 307 306 306 305 305 305 306 308 308 310 311 309 309 311 310 311 312 313 314 315 315 316 316 318 319 318 321 322 323 325 326 330
303 303 302 303 307 306 306 309 311 312 313 315 315 313 312 312 312 312 311 312 314 313 312 311 311 311 312 313 313 312 311 312 313 312 312 310 310 309 309 309 309 309 310 309 310 310 309 309 309 310 310 309 309 308 308 307 307 306 305 305 305 305 306 306 308 308 310 309 310 310 310 312 313 314 315 316 315 317 317 318 320 321 321 323 323 325 326 327
302 302 302 304 307 307 308 311 312 313 314 315 314 312 312 312 312 312 312 312 314 314 312 311 311 311 312 312 312 312 312 312 312 311 312 311 309 309 309 309 309 309 309 309 309 309 309 310 310 310 309 309 308 308 308 307 307 307 306 305 305 306 305 306 306 308 309 309 310 310 309 311 314 314 314 315 315 316 318 318 320 322 321 321 323 324 326 326
302 302 302 305 308 308 310 312 313 314 315 316 314 312 312 312 312 312 312 314 314 314 312 311 312 312 312 312 312 312 313 313 313 312 312 311 310 310 309 310 310 310 309 309 309 309 309 310 310 310 309 309 308 308 308 308 308 307 306 306 305 306 306 306 307 307 308 309 309 309 308 308 310 312 312 314 315 315 316 317 318 320 320 321 323 325 326 326
301 301 302 305 309 308 309 313 314 314 316 316 313 312 312 312 313 312 312 317 317 314 313 312 312 312 312 312 312 313 313 313 314 313 313 311 310 310 310 310 310 310 310 310 310 309 310 310 310 310 310 310 309 309 309 308 308 307 307 307 306 306 306 306 306 307 307 308 309 308 307 307 308 309 311 312 314 315 315 316 316 317 318 319 322 325 328 328
300 301 302 305 308 308 310 314 315 315 316 315 313 313 313 313 313 311 314 321 318 312 312 312 312 312 312 312 312 313 314 314 313 313 313 311 311 310 310 310 310 310 310 310 310 310 309 310 310 310 310 310 309 309 309 309 308 308 308 308 307 307 306 306 306 306 306 307 308 308 308 308 308 308 310 311 312 313 313 313 315 317 318 317 320 325 327 328
300 302 303 306 308 309 312 315 315 316 315 313 313 313 313 313 312 312 318 324 316 311 313 312 312 313 312 313 312 313 314 314 313 313 313 311 311 311 310 311 311 311 311 311 311 311 310 310 310 310 310 310 310 310 309 309 309 309 309 308 307 306 306 306 306 306 307 307 308 308 307 308 308 309 310 311 310 311 311 312 314 316 318 318 320 323 325 327
301 302 303 306 308 309 311 313 315 317 314 313 314 313 313 313 311 313 321 324 317 313 313 313 313 313 312 313 312 312 314 313 313 314 312 311 311 311 311 311 312 312 312 312 312 312 311 311 311 310 311 311 310 310 310 310 309 309 309 308 308 307 306 306 306 306 307 308 308 307 307 308 309 309 310 312 310 310 311 311 313 316 318 318 319 321 322 325
301 302 305 306 309 313 313 313 315 317 314 313 313 313 313 313 313 316 320 320 317 313 313 313 313 312 312 312 313 313 314 313 313 313 312 313 312 312 312 312 312 313 313 312 311 312 312 312 312 311 311 311 311 311 311 310 309 309 309 309 307 307 307 306 306 306 306 308 308 308 307 308 309 309 310 311 309 310 310 310 313 315 318 319 320 322 321 322
302 304 305 306 310 315 315 315 316 315 313 314 313 314 314 314 317 319 318 317 315 313 313 312 312 312 311 312 312 313 314 313 313 313 313 314 313 313 312 312 312 312 313 313 312 313 313 312 313 312 312 312 312 312 311 310 310 309 308 308 308 307 306 306 306 306 306 307 307 307 307 308 309 308 309 310 309 311 311 310 312 314 315 318 320 322 321 322
303 305 306 307 310 312 314 316 315 313 313 315 314 315 315 317 320 319 316 316 315 314 314 313 313 312 311 313 313 313 313 313 313 313 313 313 314 315 315 314 314 313 314 314 313 313 313 313 313 313 313 312 312 312 311 311 310 309 309 308 308 308 307 306 306 306 306 306 306 306 307 307 308 308 308 310 311 311 312 311 311 312 314 316 317 320 319 320
304 305 306 308 308 309 313 315 314 313 315 315 315 316 318 320 319 317 315 315 315 314 314 313 313 312 312 313 312 312 313 313 313 313 313 313 315 316 316 316 315 315 314 314 314 313 312 313 313 313 313 312 312 312 311 311 310 310 310 308 308 308 308 307 306 307 306 306 306 306 306 306 307 309 309 310 310 311 312 312 312 312 313 314 315 317 318 320
305 306 308 310 310 311 314 314 314 315 315 315 316 318 321 320 316 315 314 314 314 313 313 313 313 312 313 313 312 312 312 313 313 313 313 313 314 316 315 314 314 314 315 314 314 314 314 314 312 312 312 311 311 310 310 310 310 310 310 309 310 309 310 310 307 307 307 306 306 306 306 307 306 307 309 310 310 311 312 312 312 313 314 316 315 315 317 318
307 308 310 313 314 314 315 315 315 315 315 316 318 321 321 318 316 314 314 314 313 312 313 313 312 312 313 312 312 313 312 312 313 312 313 313 314 315 315 313 313 313 314 314 314 314 314 315 313 312 312 311 310 310 310 309 309 310 309 309 310 310 311 312 309 308 308 307 307 308 308 309 307 308 310 310 310 311 312 312 313 314 314 316 316 315 316 316
310 313 314 316 317 317 316 314 315 315 315 317 321 321 317 316 317 314 314 314 313 312 313 312 311 313 312 311 312 312 312 312 312 312 313 312 314 316 315 314 314 313 314 315 315 314 314 314 312 312 311 311 312 311 310 309 309 310 308 309 310 310 311 312 311 310 310 308 308 308 308 308 308 309 310 310 311 310 311 312 312 313 313 314 316 315 316 317
313 316 317 318 318 314 313 312 314 315 316 318 321 318 313 315 316 314 313 314 312 313 313 312 312 312 311 311 311 311 312 312 312 312 313 313 314 315 314 314 314 313 314 315 315 314 314 314 312 312 312 311 312 312 311 311 310 310 309 309 309 310 311 311 311 310 310 310 309 308 308 307 308 309 310 310 311 310 311 311 311 312 314 315 316 318 319 319
314 318 319 320 316 311 310 311 313 315 317 319 319 315 313 313 315 313 313 313 312 313 313 312 312 311 311 311 311 312 312 312 312 313 313 313 314 313 313 313 313 312 313 313 314 313 313 314 313 312 313 311 311 311 310 310 310 310 310 309 309 309 309 310 310 310 311 311 310 308 308 308 307 309 310 310 310 310 310 311 311 312 313 314 317 319 318 317
313 318 319 318 314 310 310 311 312 313 317 321 317 313 313 312 312 312 312 312 313 313 313 312 311 311 311 311 311 311 311 312 312 313 313 313 313 312 313 313 313 312 312 312 313 313 313 314 314 311 312 312 310 311 311 311 310 310 311 310 309 308 307 309 311 311 311 311 310 308 308 307 307 308 309 309 310 310 311 311 312 312 312 313 314 315 316 315
314 319 319 315 311 311 310 311 312 314 318 320 315 313 313 311 311 311 312 313 312 311 312 312 311 311 311 311 312 311 311 312 312 312 313 313 313 313 313 313 313 313 312 312 312 313 313 314 315 312 311 312 312 312 313 313 311 310 310 309 308 308 307 308 310 310 310 310 310 309 308 306 307 308 307 310 310 310 312 312 312 312 312 313 313 313 314 315
317 321 319 313 312 312 311 311 314 316 319 318 315 314 312 309 310 312 312 312 311 311 312 311 311 312 312 311 311 311 311 312 312 312 313 313 313 314 313 313 313 313 313 311 312 313 313 315 315 314 311 313 313 313 313 312 312 312 310 309 308 309 308 308 307 307 308 309 310 310 309 307 307 308 308 310 310 310 311 311 312 313 312 313 313 315 316 316
319 320 318 313 312 313 314 317 317 317 317 316 315 314 312 310 311 312 312 312 312 312 311 311 311 312 312 312 310 310 310 312 311 312 313 313 313 314 313 313 312 312 313 313 313 314 314 314 315 315 313 314 314 312 312 312 312 313 311 310 309 309 309 308 308 308 308 308 309 310 309 308 308 309 308 308 310 309 310 311 312 314 314 314 315 316 319 318
320 321 319 314 313 315 317 318 317 315 316 316 315 315 313 313 313 312 311 311 312 312 312 312 311 311 312 311 310 310 311 311 311 312 313 312 313 314 313 312 313 313 313 314 314 314 314 314 315 315 314 314 313 312 313 312 313 313 312 311 310 309 308 308 308 308 308 308 309 309 309 309 308 309 309 309 309 309 309 311 312 313 315 316 316 317 319 320
320 320 319 316 314 316 317 316 316 316 316 315 315 315 314 313 314 313 311 310 311 312 312 311 311 311 311 311 310 310 311 311 311 312 312 312 312 313 313 313 314 313 313 314 314 314 314 314 315 315 314 313 313 313 313 312 312 313 313 312 311 309 308 308 308 308 308 308 309 309 309 309 309 310 309 309 309 308 310 311 311 313 315 316 317 316 318 321
318 319 319 316 315 316 316 315 316 316 315 315 315 315 314 314 314 313 312 311 310 311 311 310 311 311 310 310 310 310 311 312 312 311 312 313 313 313 313 313 313 313 313 314 314 314 314 315 315 316 317 316 316 315 315 315 315 315 314 314 312 311 310 308 308 308 309 308 308 309 309 309 310 311 310 310 309 308 310 310 310 312 315 315 316 317 318 320
318 318 317 316 315 316 316 315 316 316 316 315 315 315 315 315 313 312 312 311 311 311 311 311 311 310 310 311 311 310 310 311 312 312 312 313 313 312 313 313 313 313 315 315 314 313 314 315 315 317 318 319 318 317 317 317 316 316 315 314 313 313 313 311 309 308 309 309 308 308 309 309 309 310 309 309 310 310 310 310 310 311 313 314 315 317 320 321
318 318 316 315 315 316 316 315 315 315 315 315 315 315 315 316 314 313 312 311 311 311 311 311 311 310 311 311 310 310 309 310 312 313 313 313 313 313 313 313 313 315 316 316 315 315 315 316 316 317 318 318 317 317 316 316 316 316 315 315 314 313 314 313 311 309 309 309 309 309 309 309 309 309 309 309 310 311 311 311 311 311 312 315 317 319 320 320
318 317 316 314 314 316 316 315 315 315 315 316 316 315 316 316 314 313 312 311 311 311 311 311 311 311 311 311 311 310 309 310 312 313 313 313 313 312 312 313 314 316 316 316 315 317 317 317 317 317 316 316 316 315 315 315 316 316 315 315 315 314 314 314 312 310 309 309 309 310 310 310 310 310 311 311 311 311 312 312 312 312 313 314 315 317 318 318
316 316 316 315 315 317 316 315 315 315 315 316 316 316 316 316 315 315 313 312 311 312 312 312 311 311 312 311 311 310 310 311 312 313 313 313 313 312 313 313 314 316 316 315 315 316 317 317 317 317 317 316 316 315 315 316 316 316 315 316 316 315 315 315 314 312 311 310 309 310 310 310 310 310 312 312 311 311 312 312 312 313 313 314 313 314 315 316
315 315 316 315 316 317 316 316 316 316 316 316 315 316 316 316 315 315 313 312 313 312 312 312 311 311 312 311 311 311 311 312 313 313 313 313 313 313 313 314 315 315 315 316 315 315 316 317 316 317 317 317 317 317 316 317 317 317 317 317 317 316 316 315 314 312 312 312 311 311 311 311 310 310 311 313 313 312 311 312 312 311 312 314 313 313 314 315
314 314 313 314 315 316 315 316 316 316 317 316 315 315 315 315 315 314 313 313 313 312 311 312 311 311 311 311 311 311 311 312 313 313 313 313 313 313 314 314 314 314 314 315 316 315 316 316 316 317 318 318 318 319 318 318 318 318 317 317 316 317 317 317 316 315 315 315 314 314 314 312 311 312 314 314 314 314 313 313 314 314 315 315 315 315 315 316
313 313 312 312 315 315 315 316 316 317 317 315 314 315 315 315 314 313 313 313 312 313 311 311 311 311 311 312 312 312 312 311 311 311 311 312 312 313 313 313 313 314 314 314 315 316 316 317 317 317 319 319 318 319 320 319 319 319 317 316 316 316 318 317 316 316 317 316 316 316 316 314 313 314 315 314 314 315 315 315 316 317 316 317 317 316 315 317
311 312 312 313 315 316 315 316 316 317 316 315 315 315 315 314 313 313 314 314 312 312 311 310 311 311 311 312 313 312 311 310 309 309 310 311 311 312 313 313 313 313 314 315 316 315 317 318 318 319 320 319 318 319 319 320 321 320 318 316 316 316 316 316 315 315 315 316 317 317 317 315 315 315 314 314 314 315 316 318 320 321 319 318 318 317 316 317
Wind_Speed
18 18 18 19 19 19 19 19 19 19 19 20 20 20 20 20 19 19 19 20 20 20 20 21 21 20 19 18 19 19 21 18 16 17 7 2 5 4 5 5 5 5 6 9 13 15 13 12 13 14 13 11 10 9 13 13 10 10 9 12 12 14 15 15 17 17 17 18 21 23 23 23 21 19 13 12 15 17 20 8 13 12 12 12 13 20 25 26
19 19 19 19 19 19 19 19 19 20 20 20 21 21 21 19 19 19 20 19 20 20 20 20 20 20 18 18 18 18 19 18 19 13 3 5 4 3 3 2 3 3 6 12 14 13 9 9 9 9 10 9 9 10 12 12 12 11 9 12 13 14 16 17 19 19 18 19 21 22 23 23 24 23 16 17 18 16 20 9 14 15 15 13 14 22 27 26
19 19 19 19 19 19 19 19 19 20 20 21 21 21 20 18 18 19 19 19 20 20 20 20 20 20 18 18 18 17 17 18 15 4 5 3 2 1 2 2 3 4 7 13 15 13 11 11 11 10 8 7 8 11 13 12 12 13 12 12 14 17 19 19 22 21 20 21 22 21 20 21 22 20 15 19 23 21 20 8 13 15 16 15 15 20 23 23
19 19 19 19 19 19 19 19 19 20 20 21 21 20 19 18 17 18 19 19 20 20 20 20 20 20 19 19 17 14 14 14 5 6 4 1 0 1 1 2 4 5 9 14 15 13 12 12 11 10 9 7 8 10 12 12 10 11 13 15 17 19 19 20 23 22 23 22 21 20 20 20 19 17 14 19 23 20 21 14 12 16 18 18 16 18 17 14
19 19 20 19 19 19 19 19 19 20 20 20 20 20 19 18 18 19 20 20 20 18 18 19 19 20 20 19 15 11 11 6 3 7 3 3 2 3 3 4 6 8 11 14 14 13 12 12 11 9 8 8 9 10 12 14 13 11 16 20 21 21 19 21 22 21 22 23 23 22 21 17 15 16 15 19 22 14 16 19 13 15 18 20 19 17 15 13
20 20 20 20 19 19 19 19 19 20 20 20 20 20 19 19 19 21 22 21 19 17 16 16 18 19 20 18 12 9 8 2 5 4 6 7 5 5 6 8 9 10 12 14 14 12 10 10 10 9 8 9 11 12 13 15 15 13 16 21 23 23 21 20 21 21 22 23 23 22 19 16 18 18 14 19 22 14 15 21 14 12 14 17 17 15 15 17
20 20 20 20 20 20 20 20 20 20 20 20 19 19 18 19 21 22 23 21 17 16 15 15 17 18 18 16 9 9 8 3 6 3 6 7 5 5 9 10 10 12 13 14 13 9 8 9 9 9 9 9 12 14 14 16 17 16 16 19 23 24 23 21 21 23 24 25 24 21 19 21 23 20 16 19 20 18 17 19 17 11 13 13 15 14 14 15
20 20 20 21 21 20 20 20 20 20 20 20 19 18 18 20 22 23 23 19 15 15 14 15 18 17 15 13 9 7 5 4 6 2 5 7 6 6 9 10 10 11 12 12 10 8 8 8 9 8 9 10 11 13 14 14 16 18 18 19 20 21 22 22 21 22 24 23 22 24 24 24 25 20 20 21 19 19 18 18 18 14 18 14 16 16 13 12
21 21 21 21 21 21 21 21 21 21 20 19 18 18 19 20 23 24 21 16 14 14 14 16 18 15 10 9 9 5 1 4 5 3 5 6 6 6 8 10 9 8 10 10 8 7 6 7 9 8 8 10 11 13 14 12 10 13 17 18 19 19 21 22 21 21 22 19 20 25 27 25 25 22 21 23 22 20 19 22 19 15 20 16 16 15 12 13
21 21 22 21 21 21 21 22 21 21 20 18 18 18 19 21 23 23 18 13 12 13 14 16 16 13 9 9 9 3 4 4 4 4 5 5 6 6 7 8 6 7 10 9 7 7 7 6 8 9 9 9 11 13 13 13 11 13 17 17 20 19 18 19 18 19 21 19 19 22 27 27 25 20 16 18 21 23 22 24 22 18 19 18 16 13 12 11
21 22 22 22 22 22 21 22 21 20 19 18 18 19 20 23 23 19 14 10 11 12 13 15 14 11 10 11 8 3 4 5 4 5 5 5 6 6 6 6 5 8 9 9 8 7 7 8 9 7 6 6 9 12 13 14 15 17 18 18 21 20 19 19 16 18 18 15 15 20 26 27 21 18 18 16 17 21 25 25 21 21 17 15 16 13 14 12
22 22 22 22 23 22 22 22 21 19 18 18 18 20 22 23 21 14 10 9 9 10 11 12 11 9 11 10 3 5 5 4 3 4 4 5 7 5 4 5 5 7 8 9 10 6 4 7 9 7 7 8 9 9 9 11 14 15 16 16 19 19 19 19 16 18 17 14 15 19 19 18 18 22 24 19 15 17 22 26 23 21 17 14 17 15 13 13
22 23 22 23 23 22 22 22 19 17 18 19 19 20 21 20 16 10 8 9 8 9 10 10 7 6 10 5 4 4 3 3 2 4 4 6 7 4 2 3 4 5 7 9 11 10 6 5 8 9 9 10 9 9 10 14 13 13 13 12 14 14 15 17 15 19 20 16 16 14 11 13 19 27 26 18 17 19 21 24 24 21 15 12 17 16 14 14
22 22 23 23 23 23 22 20 18 18 19 19 19 20 19 16 12 7 8 9 8 8 7 8 6 5 8 1 5 2 1 2 5 4 5 6 8 6 3 4 4 4 5 8 10 11 9 7 9 9 9 9 9 10 12 13 11 12 13 10 10 10 11 15 16 19 20 17 18 14 10 13 18 25 26 19 18 22 21 22 20 20 16 6 14 15 13 13
22 22 23 23 23 23 21 19 17 18 19 19 19 17 15 12 8 7 8 9 8 7 7 9 7 6 6 2 4 1 1 3 2 5 6 5 8 8 3 4 7 5 5 8 8 9 10 9 9 8 8 10 10 10 10 9 8 10 11 9 10 10 11 15 17 19 20 17 20 19 11 13 18 21 22 21 20 21 19 18 15 17 17 8 12 12 6 6
22 23 23 23 23 22 20 18 17 19 19 18 18 14 12 11 8 8 9 10 9 7 6 8 8 9 6 3 3 3 2 3 6 8 7 4 7 9 7 7 10 9 7 7 6 7 8 8 8 8 8 9 8 9 8 7 8 8 9 10 11 12 12 13 15 19 22 18 20 22 16 14 17 18 20 21 23 22 17 16 14 13 14 12 11 9 6 4
23 23 23 23 22 21 19 16 17 18 18 19 18 14 12 11 9 8 10 12 10 7 6 10 9 7 6 4 1 3 5 8 9 10 9 7 8 8 8 9 9 9 8 8 7 7 8 7 7 7 7 7 6 6 6 7 7 6 8 10 12 15 13 12 13 16 21 20 20 23 21 20 19 19 22 23 23 24 19 17 17 16 14 11 10 9 8 8
24 23 23 22 21 20 17 16 17 17 18 20 17 17 15 12 10 10 12 10 7 7 9 11 10 5 4 3 3 5 11 12 11 11 9 7 7 7 8 8 8 9 9 9 8 7 7 6 6 6 5 6 6 6 6 7 9 9 10 9 11 14 15 15 14 13 18 20 21 22 22 24 24 22 23 22 20 24 24 17 16 19 20 15 12 14 13 13
24 23 23 21 20 19 15 15 16 15 18 20 20 20 14 10 9 8 10 8 6 5 4 4 4 5 4 4 6 9 13 14 10 8 6 4 4 7 8 8 8 8 9 7 7 9 6 5 6 6 6 6 6 8 9 11 13 13 13 12 13 14 14 16 13 14 20 19 19 22 22 23 24 24 24 19 18 21 24 21 16 18 22 19 15 14 16 18
24 24 23 20 18 18 14 14 14 13 17 21 25 20 8 5 4 2 5 8 7 4 5 4 4 7 7 7 8 11 13 11 6 3 2 2 3 8 8 8 9 8 8 9 6 8 5 5 6 7 8 9 10 11 12 14 13 13 13 13 15 15 14 18 18 17 19 16 16 20 22 24 24 23 22 20 20 22 23 23 22 20 20 19 18 16 15 16
25 25 22 18 18 16 12 13 13 13 15 18 20 12 5 8 6 4 7 9 6 2 3 4 5 5 6 7 7 9 9 8 6 4 2 2 5 8 4 7 9 7 9 11 7 3 3 6 9 11 12 11 11 11 12 14 13 13 13 12 13 13 13 18 22 21 16 14 16 20 22 22 22 20 20 20 22 23 22 22 23 24 21 16 18 20 17 12
26 24 21 16 16 15 11 10 11 12 15 13 12 9 8 9 7 6 7 8 8 5 5 4 5 5 4 4 3 5 8 9 6 4 4 3 7 6 3 5 7 8 8 9 7 5 6 8 10 11 9 9 9 9 10 12 13 12 11 10 11 11 13 16 20 22 17 12 14 19 19 17 16 16 17 18 19 19 20 21 19 20 21 17 17 20 19 15
26 24 20 14 14 14 10 9 8 9 12 10 10 11 10 9 8 8 6 7 8 9 8 4 5 5 2 3 6 6 9 6 5 0 4 4 8 5 6 7 8 10 10 9 8 7 8 9 8 8 8 9 10 10 12 12 11 10 9 9 9 11 13 11 14 19 17 13 14 16 14 12 13 14 14 16 19 17 18 23 21 17 18 18 17 17 19 19
26 24 18 13 13 13 11 11 9 8 10 7 10 12 10 9 9 10 7 6 6 7 6 1 4 4 2 2 5 6 7 5 6 3 4 5 8 6 7 8 9 9 8 10 12 11 11 11 11 11 12 12 11 10 12 10 8 10 11 11 11 13 16 13 13 17 17 16 16 16 13 11 13 15 14 13 17 20 18 21 23 19 19 19 19 16 17 21
26 23 17 13 12 13 14 13 8 9 10 6 10 12 11 10 9 9 5 5 3 4 7 3 3 1 3 5 5 5 8 6 7 5 4 6 8 7 8 7 7 8 9 10 11 10 11 12 13 13 12 12 11 10 10 9 8 9 12 13 14 15 17 16 16 16 13 13 14 15 12 10 13 17 16 14 16 19 17 18 20 21 22 21 18 15 12 15
26 22 16 12 11 15 13 7 9 14 10 6 11 13 11 10 9 8 5 4 1 2 4 4 4 1 6 6 4 5 9 5 4 5 2 3 6 7 7 6 5 8 10 9 7 6 8 11 12 11 11 12 12 10 10 11 9 8 10 13 16 17 17 17 17 14 10 11 13 15 12 9 12 17 17 17 18 20 18 21 22 19 21 21 17 13 11 11
24 20 15 10 9 14 10 7 13 14 6 8 12 13 10 10 9 6 4 3 2 2 1 2 2 3 5 5 6 7 7 6 6 6 4 6 3 2 5 6 6 8 9 6 5 5 8 11 10 10 12 11 10 9 10 11 9 8 9 12 15 17 19 17 15 12 10 12 14 16 15 10 10 12 15 19 20 19 21 22 23 19 19 22 19 15 11 10
23 18 14 8 7 9 7 9 14 10 7 11 12 11 11 10 7 5 4 0 3 2 2 2 2 1 4 7 8 7 7 7 5 2 2 7 7 3 6 7 9 11 11 8 7 8 10 12 11 11 12 9 9 10 10 11 10 10 12 14 14 15 18 17 14 11 10 11 12 15 15 11 10 10 13 19 19 18 21 23 22 21 18 19 20 19 15 12
21 16 11 7 6 6 7 9 11 9 10 12 10 11 12 8 5 4 3 2 3 1 1 1 1 2 7 9 9 8 6 5 3 3 5 8 7 6 7 8 11 13 13 10 10 10 11 13 14 14 10 8 11 12 11 12 11 11 14 15 14 14 15 15 12 10 11 10 10 15 16 11 9 11 12 14 16 16 18 19 20 20 18 16 16 16 16 15
18 12 9 8 7 7 8 8 8 9 11 11 11 12 11 6 5 3 2 3 3 3 4 5 6 9 13 11 8 8 7 4 5 6 7 8 4 3 5 8 9 10 11 10 11 12 12 13 13 12 10 10 12 13 13 13 13 13 13 14 13 12 12 11 10 10 10 10 12 16 19 16 11 11 12 12 14 15 14 16 18 20 20 19 15 11 12 14
15 9 8 7 7 9 9 6 7 11 12 11 13 13 8 5 4 2 6 5 4 5 7 9 11 12 12 11 8 8 8 6 6 6 7 7 3 2 2 5 5 7 8 7 7 10 10 9 8 8 10 12 13 13 11 11 13 12 10 9 9 9 8 8 8 9 9 9 12 17 20 20 14 10 12 14 17 19 16 15 18 22 23 21 17 15 14 14
11 7 7 6 8 9 8 9 12 12 12 13 13 9 6 3 1 3 7 7 4 6 9 10 11 12 12 11 8 8 9 7 6 8 8 7 4 2 4 4 4 6 7 5 7 9 8 7 7 7 7 10 11 10 8 9 9 8 8 9 8 7 6 7 7 7 9 10 13 18 18 16 13 12 16 18 19 21 18 14 15 19 22 21 19 17 15 14
7 6 7 6 7 8 9 11 12 10 12 14 10 4 5 4 4 6 7 7 6 8 10 10 13 15 13 10 7 10 10 8 8 10 9 8 6 5 8 9 8 7 7 7 9 8 7 6 7 6 3 3 7 7 6 7 6 5 6 6 6 6 6 7 7 7 9 10 13 17 16 13 11 12 18 21 21 21 17 15 17 18 16 18 20 19 18 19
4 5 7 7 9 10 10 11 10 9 12 12 7 4 5 4 6 8 8 7 8 10 11 11 15 16 9 6 8 9 8 8 11 11 9 8 6 5 7 8 9 9 7 8 7 7 9 7 3 4 5 6 7 8 8 10 9 8 7 5 6 6 4 5 6 6 7 8 10 12 9 9 10 9 14 19 21 21 18 16 18 17 15 13 15 18 20 21
4 7 8 10 11 10 9 10 8 9 10 8 6 4 4 5 6 7 7 7 8 10 12 13 13 11 7 7 9 10 8 8 11 11 9 8 5 5 6 7 10 10 7 7 6 6 10 7 2 4 9 10 10 10 10 10 10 8 6 6 6 2 1 3 6 8 8 7 7 8 5 7 10 13 17 17 18 19 19 18 16 15 15 13 13 14 13 15
7 9 8 9 9 6 7 7 7 8 8 7 5 4 5 5 5 6 6 8 9 9 13 12 8 7 6 7 8 10 11 9 11 9 7 8 5 4 7 7 8 10 8 7 7 6 7 6 6 11 12 10 10 10 10 9 7 5 5 7 4 3 4 5 8 8 7 6 7 7 7 8 10 13 17 18 18 19 19 20 18 15 13 11 10 8 6 9
10 9 7 8 8 6 6 5 5 7 7 6 4 4 5 5 6 7 7 8 9 9 10 8 5 7 8 7 8 12 12 10 10 9 7 8 5 4 8 6 6 9 10 8 6 4 6 8 10 13 11 9 11 13 13 12 11 8 7 8 5 3 3 5 6 6 5 5 6 9 11 10 8 7 10 14 17 18 18 19 20 18 16 12 9 6 7 11
11 11 8 7 7 7 6 4 4 6 6 5 3 3 5 6 7 7 7 8 9 8 7 6 6 7 9 7 8 12 12 9 10 9 7 7 4 6 10 6 4 9 11 8 5 4 7 8 8 9 9 10 10 11 12 11 12 12 11 9 7 5 4 2 3 5 5 5 5 10 13 11 8 7 9 12 15 16 17 16 16 18 17 14 12 11 11 12
10 9 4 3 7 8 7 5 5 5 5 5 4 3 5 7 8 9 7 7 8 6 6 7 7 8 8 9 9 11 11 9 9 8 6 5 6 8 9 4 6 11 12 9 5 5 6 6 6 7 10 13 10 7 7 7 7 10 11 9 7 6 4 4 4 4 5 5 5 8 10 8 7 8 11 13 13 14 13 13 13 13 14 13 12 12 14 13
8 5 2 7 10 9 8 7 6 5 4 4 6 4 6 8 8 9 7 5 5 4 5 8 8 7 7 9 10 9 9 10 9 8 6 6 8 8 6 5 9 11 11 10 7 3 3 4 6 9 11 11 7 5 7 9 7 7 7 7 6 4 4 5 6 5 6 5 5 6 7 7 6 7 12 13 10 11 12 10 10 10 12 15 14 12 12 12
7 3 1 7 13 11 9 7 4 4 4 6 7 5 6 6 7 10 8 3 2 3 5 9 7 6 7 8 9 9 8 9 9 8 6 6 8 6 5 8 12 11 10 10 7 2 2 4 7 10 10 8 8 9 12 13 11 8 7 8 7 4 5 7 6 6 6 6 5 5 7 9 7 6 11 12 10 10 11 10 9 8 8 9 12 13 11 9
6 2 2 5 14 12 8 4 3 5 5 7 7 4 3 3 6 9 9 5 3 3 5 7 7 7 7 8 9 9 8 8 10 9 7 9 9 7 9 12 11 10 9 8 6 2 1 4 8 10 9 11 16 15 13 15 14 12 9 9 9 6 6 7 6 5 6 5 5 7 8 10 8 7 11 12 12 13 13 12 10 8 12 12 10 11 9 9
3 4 2 1 9 10 7 4 7 5 5 9 10 6 6 4 4 6 10 9 6 4 4 6 8 8 8 8 8 10 10 8 8 9 9 11 10 9 12 11 9 10 7 6 6 1 1 3 7 9 10 12 13 7 5 11 10 8 8 9 10 9 7 7 7 7 6 6 5 6 8 9 6 5 8 10 12 12 10 11 12 10 10 12 15 14 11 8
5 5 2 2 5 6 4 5 7 6 7 10 9 8 8 6 4 3 6 8 6 5 6 7 8 9 9 9 10 10 10 7 6 9 11 10 9 11 11 8 9 10 5 3 3 1 1 3 4 7 9 8 6 2 2 7 7 5 7 9 12 13 11 9 8 7 7 9 10 8 7 7 6 6 7 8 10 13 11 10 10 9 9 10 12 14 13 11
5 4 2 4 4 5 4 6 6 6 8 9 9 9 8 9 8 1 1 7 6 3 6 7 8 10 9 9 11 10 10 8 7 8 10 10 10 10 10 10 12 8 3 2 1 2 2 3 3 6 8 6 7 6 5 4 5 6 9 12 15 16 15 11 7 6 7 9 11 9 7 8 9 11 11 8 8 11 13 12 9 7 8 10 10 10 10 10
4 3 5 6 6 5 5 7 7 7 7 8 8 9 8 10 10 4 3 6 3 1 6 7 8 11 9 9 11 11 11 11 9 8 9 10 9 8 11 14 10 6 5 2 1 2 2 4 5 7 7 8 9 9 9 7 6 9 13 16 15 14 16 13 8 7 7 8 9 10 10 12 12 14 14 9 6 9 12 12 10 8 8 9 9 7 8 8
3 3 4 5 5 5 4 6 7 6 7 8 6 7 9 11 11 5 4 6 5 6 7 4 4 8 9 11 12 10 12 13 11 11 11 11 11 10 14 14 6 5 4 3 2 1 3 5 6 7 10 13 13 14 16 14 11 13 16 17 15 14 15 13 10 10 10 8 8 9 11 13 12 11 13 12 11 9 11 13 12 10 10 9 8 7 8 10
4 3 3 2 3 5 6 6 6 7 8 7 7 9 11 12 11 9 8 7 7 10 8 2 5 10 10 13 12 10 12 12 10 12 11 11 13 12 12 13 5 3 2 1 4 2 3 5 7 9 11 14 14 16 18 15 12 14 15 16 15 15 15 13 13 15 13 10 11 12 14 15 13 11 12 13 12 10 11 12 11 11 13 14 12 10 11 12
5 3 3 3 4 5 5 4 6 9 8 5 6 9 12 12 13 12 12 9 7 9 9 8 10 12 12 13 11 9 11 11 11 12 11 12 14 11 9 10 6 1 1 1 1 2 1 4 7 10 14 16 14 11 11 11 11 11 11 12 12 13 13 13 13 15 15 15 16 17 18 17 14 13 12 12 13 12 11 11 11 12 13 15 14 12 13 14
4 3 4 6 7 5 4 4 6 8 6 4 6 9 11 13 14 13 13 13 10 9 10 12 13 13 13 12 11 10 11 12 13 14 13 13 13 10 8 7 6 8 9 7 3 2 2 4 7 9 11 12 10 7 7 10 10 9 11 13 14 14 13 10 10 12 13 15 17 18 18 16 11 9 11 13 12 11 11 12 12 10 11 14 14 13 13 13
8 5 3 4 6 6 6 6 5 6 5 5 6 8 11 14 15 14 13 13 11 10 11 14 15 13 11 12 12 11 12 13 16 17 16 14 12 10 8 8 8 10 10 9 7 3 3 5 7 8 8 8 9 10 11 13 8 5 9 17 18 15 12 11 11 11 11 13 16 15 13 11 8 10 12 13 13 11 11 11 11 11 14 16 16 15 14 11
10 6 4 4 6 6 7 6 6 6 5 4 5 8 11 14 15 13 11 10 11 13 13 14 14 12 10 12 12 12 13 15 17 18 16 15 15 13 11 12 12 10 9 8 8 6 6 6 6 6 7 8 10 12 14 12 5 2 8 14 14 14 14 14 13 13 13 12 12 11 10 11 14 15 15 16 15 13 10 7 4 6 11 16 18 17 15 12
Wind_Direction
350 348 346 345 343 343 342 341 339 338 338 337 337 336 334 332 330 328 328 326 325 326 326 326 325 327 331 332 334 336 334 325 305 298 289 72 29 344 327 325 300 285 275 289 290 284 275 260 244 231 231 230 228 230 232 233 231 227 222 229 232 234 234 229 227 230 235 239 246 251 254 260 265 266 267 256 249 257 260 217 141 134 126 139 138 139 149 156
350 348 346 344 343 342 340 338 338 337 337 336 336 335 332 331 333 331 329 328 327 327 326 325 324 328 333 335 336 338 335 320 295 293 45 65 3 334 323 312 278 276 285 299 302 299 291 281 277 249 228 225 225 222 225 226 228 231 230 233 233 235 239 238 236 234 232 233 240 242 241 247 256 260 262 260 257 252 253 219 137 136 133 143 140 139 150 157
349 346 345 344 342 341 339 338 337 336 335 335 334 333 332 333 338 337 334 332 330 329 326 325 324 326 334 336 335 338 329 308 291 298 77 52 12 332 305 314 290 291 294 296 300 302 298 294 298 291 264 241 232 225 223 219 223 231 234 239 237 237 241 243 244 245 241 238 240 242 238 236 244 255 258 253 253 255 258 224 144 149 142 152 150 140 151 157
347 346 345 343 341 340 339 338 336 335 334 332 331 331 331 332 336 338 336 331 330 329 326 326 324 325 334 334 333 337 318 296 300 81 77 8 15 248 287 334 314 308 297 292 292 287 283 282 278 270 267 260 249 243 236 226 223 230 233 240 243 242 245 244 246 252 254 253 250 247 243 238 234 237 246 250 245 243 256 246 176 162 147 150 145 135 145 146
345 344 343 341 340 339 338 337 334 332 331 330 330 329 328 329 333 336 335 331 329 327 325 326 325 325 330 330 331 327 306 291 99 91 54 336 286 259 278 296 313 319 300 293 290 281 270 267 265 256 252 254 250 247 245 236 231 236 238 244 248 247 250 250 249 249 252 258 262 259 252 250 246 235 233 243 242 228 246 253 208 170 158 154 147 142 143 135
345 344 342 340 338 338 336 334 333 331 330 330 328 326 326 329 332 334 333 330 326 324 325 325 324 326 327 325 326 303 290 349 93 79 15 335 288 276 293 287 297 307 294 288 285 277 265 257 257 253 245 245 246 246 249 245 239 241 241 244 248 249 250 254 258 257 253 254 255 259 257 256 259 257 245 237 241 230 238 257 239 177 166 160 147 143 144 146
346 343 342 340 338 337 335 333 331 330 329 328 326 324 326 331 333 332 332 328 323 323 323 325 327 328 327 325 314 260 255 35 73 58 1 349 320 303 311 297 286 289 283 281 282 278 277 276 267 264 261 252 250 248 248 248 247 248 248 247 248 250 252 251 254 259 261 259 256 256 254 249 250 258 260 246 244 235 228 253 250 186 164 157 144 148 147 150
345 344 343 340 338 336 333 332 330 328 327 326 326 324 327 330 330 330 328 324 321 322 325 328 330 332 333 332 315 250 226 41 48 22 343 356 345 309 308 293 265 269 276 276 284 291 295 290 277 274 272 264 267 268 261 255 248 249 253 254 255 253 255 254 252 254 258 261 264 263 257 250 246 249 256 253 251 240 221 242 249 178 159 159 154 163 155 150
346 344 342 340 338 335 333 331 329 327 325 325 327 326 328 328 327 328 325 322 320 323 328 329 332 335 331 314 299 282 86 25 9 0 341 343 332 301 288 281 262 260 273 275 275 278 282 281 281 291 296 289 291 291 286 277 256 257 261 260 262 260 257 258 257 258 258 255 255 259 262 258 248 241 243 244 249 250 222 223 233 182 170 170 162 170 165 160
345 343 342 340 337 335 333 330 328 326 325 327 329 327 328 328 326 326 321 318 320 324 329 330 335 335 317 291 282 299 43 351 334 351 342 330 312 298 285 285 293 282 279 283 272 267 282 299 307 311 311 297 287 284 283 281 281 285 283 278 276 275 272 266 266 273 270 258 250 256 258 255 251 245 242 232 234 249 241 226 220 200 189 171 163 172 165 170
344 343 342 340 337 335 332 329 328 328 328 330 329 328 329 327 325 322 315 315 322 325 329 330 333 330 311 293 286 0 19 326 335 335 320 312 293 301 309 298 297 287 286 294 281 271 287 305 315 310 297 290 279 276 269 269 277 283 285 287 283 283 283 277 280 286 283 275 273 275 260 249 255 254 247 239 227 234 245 247 230 213 206 168 162 173 165 175
345 344 341 340 337 334 332 330 331 333 333 331 330 330 328 326 324 317 309 314 322 323 326 327 329 327 305 287 293 36 0 310 335 323 297 301 291 288 319 300 283 286 291 293 288 291 300 299 304 289 284 301 292 282 286 286 281 280 282 283 280 277 271 267 272 274 276 279 280 289 275 252 256 251 242 245 246 234 234 249 246 223 215 182 168 173 174 177
345 343 341 339 337 334 332 332 336 337 335 334 332 330 327 326 322 311 303 314 323 320 321 321 321 310 296 297 74 40 335 304 272 281 291 307 300 271 262 283 269 275 282 283 288 300 306 295 289 280 282 290 287 292 306 300 290 282 276 271 274 275 265 260 263 263 262 266 264 275 277 251 247 244 242 242 248 249 231 235 248 240 228 190 169 173 176 173
344 343 340 338 337 335 334 337 341 339 337 335 332 330 328 326 320 305 300 313 322 314 310 311 306 293 283 262 90 44 334 262 236 266 317 318 308 283 238 248 258 264 276 279 278 282 286 284 278 276 278 271 274 290 290 281 274 274 271 264 263 263 262 257 250 248 247 254 255 255 260 248 241 239 240 241 247 255 236 219 228 240 251 212 167 180 177 167
344 342 340 339 336 335 337 341 344 341 339 335 332 331 328 328 318 298 297 309 321 314 305 301 276 256 275 180 119 76 186 220 274 332 323 314 306 301 298 287 286 279 271 278 275 269 268 267 269 269 268 260 258 267 269 268 261 260 263 258 254 253 260 257 247 243 240 240 240 239 251 250 244 242 240 242 250 255 239 224 219 219 238 226 170 181 167 137
343 341 340 338 336 337 340 344 347 344 341 336 334 328 323 325 308 292 296 298 312 321 304 290 249 224 274 15 124 203 229 287 343 335 304 296 297 303 323 304 286 271 247 250 263 270 261 250 260 266 269 269 266 265 265 270 260 245 249 253 255 257 260 257 247 241 238 237 233 228 237 246 241 244 243 243 251 252 235 233 247 238 232 214 173 166 148 129
343 341 340 338 337 340 342 347 350 346 343 340 335 322 313 310 293 290 294 291 303 307 268 275 277 246 268 332 252 249 338 337 335 323 302 297 288 291 304 289 286 284 255 240 243 257 251 238 250 254 253 252 255 272 272 273 274 258 249 250 252 253 257 262 259 247 233 229 232 228 231 240 237 239 241 241 250 257 245 226 234 252 252 223 181 163 161 170
343 341 340 338 337 341 346 351 351 350 347 344 339 326 314 298 287 293 292 290 293 270 249 258 279 283 256 293 316 339 348 333 320 313 293 277 271 276 286 286 301 301 276 251 230 231 231 219 242 254 249 242 242 260 266 273 279 280 272 267 263 256 251 250 251 256 246 232 230 231 233 237 235 235 239 237 241 253 255 245 230 237 248 243 211 186 180 184
342 341 340 338 338 342 349 353 353 354 347 349 352 339 321 292 279 275 269 262 248 258 278 261 273 309 307 345 2 351 338 317 298 286 275 274 274 274 273 277 282 275 279 269 208 207 227 223 238 252 250 249 256 262 276 289 287 292 294 287 286 278 266 265 261 254 254 250 241 236 235 237 235 233 234 233 238 243 247 253 249 236 235 238 232 211 198 193
342 340 340 338 339 343 350 355 358 355 345 348 349 339 327 321 295 251 283 269 257 303 332 338 350 326 319 343 343 338 332 311 281 236 275 341 291 286 274 261 265 251 260 275 223 192 218 252 257 264 270 269 267 271 292 306 301 300 297 287 289 286 281 288 291 272 255 257 259 251 245 239 233 233 230 225 233 238 237 239 244 245 236 224 225 226 217 203
341 341 341 339 340 343 349 356 3 3 349 341 339 341 19 10 351 1 340 297 280 316 299 318 337 308 310 326 323 336 332 300 270 212 202 337 287 280 253 227 254 249 235 251 254 214 227 268 268 264 276 284 284 293 308 309 301 295 289 285 286 284 282 282 286 290 286 281 268 257 257 250 234 231 233 227 227 232 235 236 233 239 243 226 215 222 226 216
341 342 342 340 342 345 344 350 3 8 356 344 350 15 30 11 351 339 331 300 296 282 249 271 282 274 300 319 355 351 304 291 287 201 152 340 297 273 262 236 260 279 265 248 244 254 253 256 257 258 280 303 301 300 299 294 291 286 280 281 279 276 281 276 275 283 286 289 273 251 253 258 244 239 245 243 239 232 231 241 240 234 240 239 221 213 218 223
341 342 342 343 344 342 339 338 341 349 343 344 19 28 8 356 345 327 309 287 288 259 238 245 275 288 346 19 16 325 287 317 336 115 114 318 296 288 289 277 276 288 291 279 262 264 267 269 283 294 295 287 279 277 279 281 280 274 269 271 276 277 279 275 272 276 271 273 282 273 269 267 255 257 260 254 256 252 233 234 244 248 246 248 243 221 206 216
342 343 343 344 343 340 333 320 317 323 317 330 27 24 354 345 343 333 315 277 273 233 211 180 290 295 46 356 337 294 290 348 316 309 65 315 307 321 295 281 284 283 276 275 275 270 267 278 298 300 288 277 269 268 274 277 274 269 268 269 277 280 279 279 277 279 278 269 266 272 279 274 263 261 259 253 253 255 248 235 233 242 253 251 248 238 207 206
342 342 344 344 343 342 327 311 321 332 319 349 21 3 348 348 347 345 324 267 259 187 184 183 237 291 351 277 236 260 294 308 288 304 18 325 318 317 295 288 282 277 276 280 286 283 277 289 297 289 286 287 277 266 266 273 279 275 272 276 284 283 279 280 279 277 277 269 259 258 261 258 256 252 250 255 252 248 259 261 240 229 240 247 241 241 228 209
342 341 343 343 343 345 333 317 340 331 323 23 13 346 343 347 348 351 311 247 149 125 182 184 188 9 344 288 245 298 306 310 289 285 275 290 316 313 299 297 275 269 283 292 296 291 278 281 289 289 290 287 281 278 274 273 274 272 275 283 287 287 279 272 271 271 267 266 264 259 258 254 248 243 239 244 249 251 259 267 258 233 223 235 240 235 234 225
342 340 340 341 344 347 346 336 335 330 338 12 351 336 338 341 346 340 287 225 102 17 298 131 110 21 343 297 306 312 313 334 311 274 221 184 196 288 282 288 293 291 301 306 285 277 274 270 271 280 280 273 269 273 273 271 269 272 279 282 283 286 285 280 274 271 272 275 269 260 261 266 253 245 246 241 235 246 257 257 261 253 223 219 234 239 235 239
342 337 335 338 340 334 331 323 326 338 359 345 334 332 334 335 334 307 267 112 53 337 317 71 70 346 276 291 320 316 301 311 300 282 242 206 199 231 259 279 300 301 304 298 277 287 297 290 288 287 281 274 275 281 285 280 274 279 283 279 278 280 280 281 280 275 274 275 269 260 258 260 252 246 254 251 238 238 251 253 257 261 245 219 221 230 233 245
340 335 329 331 326 309 309 305 306 326 341 332 329 327 321 312 299 268 251 6 23 340 302 44 113 271 305 324 339 324 296 283 293 339 303 263 246 247 260 292 307 303 301 288 278 287 295 293 293 289 279 274 281 287 287 278 273 283 286 282 281 278 273 272 272 269 267 263 260 259 256 254 250 242 243 248 241 231 234 245 252 258 258 241 226 225 226 232
339 333 327 322 323 323 308 278 281 324 335 331 328 319 307 289 268 273 353 15 5 347 342 1 358 332 329 339 340 324 319 314 319 320 302 294 280 226 264 296 294 292 289 275 272 279 285 292 293 286 280 285 291 289 285 283 288 292 287 284 282 274 269 267 267 268 264 257 256 257 257 259 254 242 241 244 248 242 224 223 237 246 252 249 235 231 244 243
339 329 325 314 319 326 311 295 329 339 334 330 323 309 290 259 253 330 21 2 326 345 349 350 346 334 331 336 333 330 332 337 341 329 316 320 340 81 336 292 274 281 279 269 277 285 282 281 284 281 279 282 281 278 276 274 277 281 277 275 276 272 268 262 260 260 257 255 257 253 252 258 257 243 244 247 251 254 239 219 221 228 239 250 243 229 243 258
337 327 320 313 316 307 293 315 335 331 325 323 316 301 280 270 290 12 1 342 337 356 349 344 338 324 317 320 331 352 344 342 352 342 335 321 306 26 7 318 311 312 302 311 319 308 294 281 286 286 269 268 272 275 279 269 264 270 272 267 265 265 263 257 251 247 252 255 256 253 247 249 254 251 251 250 249 252 248 240 242 233 224 231 243 239 239 248
337 325 312 310 313 289 277 302 321 323 321 316 306 288 284 307 22 17 348 352 7 351 341 341 325 306 296 303 344 12 349 338 351 339 335 324 314 7 3 341 340 328 316 326 322 315 312 310 319 326 342 330 297 290 290 286 282 279 278 277 274 270 262 256 251 249 258 257 257 262 258 251 251 243 243 247 252 259 251 235 247 256 238 218 221 227 231 235
324 317 311 298 282 269 279 298 309 318 318 312 295 275 298 329 20 10 354 357 350 338 338 333 316 309 313 336 3 18 349 335 348 338 331 334 336 3 355 349 356 342 326 328 327 324 317 316 345 352 356 348 305 285 287 292 288 276 266 254 256 267 275 270 271 274 279 278 282 291 286 267 265 256 246 242 245 257 258 237 228 236 245 235 220 218 220 223
304 313 311 292 273 263 284 298 303 312 313 308 290 294 345 2 2 359 2 353 339 336 331 324 322 327 356 2 352 6 6 344 342 338 336 344 355 2 348 2 10 358 348 339 336 331 310 305 25 346 319 316 301 284 282 283 282 279 271 259 252 236 180 264 283 286 292 302 296 295 292 277 283 287 278 259 239 239 248 253 249 237 233 234 232 230 227 224
307 302 280 278 289 293 302 299 302 308 305 306 312 352 17 13 3 358 359 347 337 333 324 324 344 348 353 356 339 353 5 345 338 344 340 343 11 24 356 8 14 4 5 344 326 326 308 301 332 323 315 330 332 312 295 279 279 289 280 277 273 141 161 247 270 268 272 283 273 262 265 271 274 278 281 269 246 234 230 233 244 255 252 240 234 238 260 262
321 307 274 278 312 330 317 306 311 304 293 303 326 23 20 18 26 6 352 346 334 329 321 323 353 345 341 350 338 347 353 341 344 350 336 339 6 11 352 7 21 5 5 350 321 329 321 301 309 312 317 354 353 324 303 279 270 275 272 277 272 220 242 288 284 268 257 258 266 265 262 262 261 264 276 275 260 247 235 224 224 233 238 240 246 258 286 288
314 301 281 279 311 329 319 309 313 297 284 299 333 46 11 9 30 11 351 346 333 324 321 326 348 344 341 344 336 341 343 338 346 344 335 343 359 357 350 354 4 354 356 349 320 326 326 301 299 309 317 336 334 311 299 280 266 269 269 272 272 266 284 302 271 276 270 259 273 274 265 260 258 260 269 277 276 263 242 228 227 232 234 236 239 242 263 280
297 285 291 339 334 330 321 303 294 280 271 315 355 23 354 358 14 6 355 349 339 324 320 337 348 342 341 337 327 334 340 341 342 334 335 343 337 349 359 355 337 339 343 339 313 313 324 300 291 301 309 318 315 296 298 292 276 274 269 259 257 268 278 254 247 269 272 269 281 283 278 266 251 260 264 262 274 278 256 234 232 238 243 252 252 233 232 251
285 275 14 11 342 331 321 296 279 277 281 351 11 4 358 2 351 344 353 0 342 310 318 340 342 338 337 325 322 337 342 338 333 323 325 329 326 344 13 356 329 328 329 323 313 315 307 273 278 292 301 306 302 297 304 301 297 290 277 261 254 273 289 266 258 264 262 260 266 275 283 274 256 265 268 260 265 278 272 258 250 250 248 249 258 252 223 223
284 284 61 8 349 342 321 286 265 311 339 17 10 351 5 0 326 330 348 353 294 266 308 326 319 314 315 313 331 348 339 330 327 320 321 329 333 344 342 326 323 324 323 314 312 329 273 262 279 293 300 295 284 295 300 293 286 280 279 276 266 261 274 266 257 257 255 246 257 273 277 274 271 270 276 281 291 294 293 289 285 301 306 269 254 258 241 220
274 319 98 3 354 343 313 305 359 353 12 15 346 338 18 330 305 331 342 333 304 284 303 313 303 305 321 335 347 338 322 323 323 320 323 323 328 326 313 320 326 324 322 311 309 344 295 273 280 283 287 284 281 287 298 297 284 266 266 276 271 256 257 269 274 269 258 251 269 282 274 269 270 271 281 295 303 304 310 312 310 330 343 334 306 286 267 242
297 342 202 288 0 344 308 356 14 356 18 2 341 1 15 322 293 333 339 341 337 326 326 315 306 319 343 346 330 314 318 327 316 314 318 314 318 321 319 330 332 319 317 310 307 8 110 263 275 280 284 284 280 272 306 321 309 275 269 280 278 270 258 263 275 279 271 262 265 269 267 271 277 274 281 293 295 296 307 322 332 341 334 326 324 320 315 294
316 311 232 128 36 355 335 25 4 344 15 0 341 358 354 330 333 331 327 336 333 325 329 318 314 328 336 322 307 311 326 326 306 311 312 307 317 325 327 332 317 307 312 312 307 106 147 258 267 290 296 298 301 277 295 335 347 319 298 297 294 292 282 266 267 277 275 266 262 257 257 271 290 297 291 290 293 295 298 305 317 325 317 313 315 317 323 333
301 289 345 35 3 341 42 52 354 338 12 360 343 354 346 336 350 50 227 330 327 325 328 322 323 323 317 313 313 320 324 316 311 314 305 305 318 325 329 326 318 325 23 21 0 148 235 269 252 281 295 300 304 298 293 328 344 310 297 297 298 301 298 286 272 266 266 266 265 262 266 276 285 286 275 263 273 288 289 286 283 287 295 296 297 306 323 335
316 336 358 350 332 342 53 51 6 353 3 347 340 349 335 330 348 52 78 348 336 297 308 304 322 326 323 324 320 319 321 317 314 310 307 316 322 325 327 325 333 21 48 17 137 168 258 278 254 255 265 272 279 286 287 291 292 288 291 294 293 295 295 290 274 258 264 272 267 261 271 278 280 281 278 279 308 316 309 305 298 288 279 275 282 300 314 312
316 0 2 342 329 352 23 23 11 0 338 325 327 337 332 335 345 3 17 356 343 322 304 274 318 319 312 322 324 319 319 316 313 315 319 322 320 322 325 323 342 58 21 354 78 111 280 282 270 256 254 261 268 275 280 282 280 281 284 287 290 290 286 281 275 272 273 274 270 267 272 277 284 295 302 310 321 321 312 309 306 303 294 276 265 274 286 282
342 346 19 8 303 332 354 358 351 337 326 319 323 339 343 342 338 333 340 353 343 324 317 307 310 302 304 324 328 317 313 315 316 319 322 321 320 324 325 322 331 113 145 80 97 109 272 275 285 292 285 277 273 273 279 283 280 277 279 282 289 291 281 273 271 274 274 271 272 276 276 275 281 284 283 290 294 290 292 298 298 301 299 282 258 248 264 266
0 345 18 355 294 311 344 340 317 319 326 328 334 350 351 338 329 331 332 335 337 330 327 324 317 317 326 331 322 307 313 317 314 314 316 317 317 318 319 317 319 339 283 306 111 125 249 275 293 310 306 296 291 287 291 302 301 299 302 303 306 307 297 284 278 281 286 283 281 284 282 278 277 280 283 292 296 292 290 288 277 272 281 280 262 243 247 253
352 348 357 326 308 319 335 318 301 301 314 347 354 350 344 328 326 331 324 322 334 339 327 320 321 325 325 319 310 304 307 308 306 306 309 312 311 309 310 306 302 311 317 321 334 142 186 295 313 318 307 299 307 318 323 329 324 315 329 342 341 333 329 326 318 311 305 297 296 300 296 286 284 310 329 328 318 305 297 297 297 295 297 295 280 262 256 258
335 332 345 315 314 324 316 311 312 304 319 4 2 337 330 324 327 326 314 313 328 333 326 326 329 328 317 309 308 303 300 305 305 300 298 296 289 284 289 289 293 303 304 311 322 293 254 298 310 314 309 301 314 330 332 332 321 302 343 351 348 342 339 336 329 322 314 311 312 309 299 292 306 329 331 318 308 305 300 304 320 329 320 306 290 274 267 270
345 331 336 311 297 305 306 312 329 329 338 1 338 322 323 321 322 321 311 312 327 329 328 330 328 322 311 307 312 314 312 309 302 296 291 283 277 274 272 271 277 287 295 308 315 295 287 298 302 315 314 297 306 323 327 324 313 337 350 341 338 339 332 322 319 316 314 315 311 300 294 301 311 314 311 304 299 299 293 288 302 312 304 297 288 276 266 262